• In Italy
  • List of Countries
  • For 7 days
  • Water Temperature
  • Satellite Maps
  • Weather Map
  • Weather Widgets
  • user-avatar
    Login

    Hourly Weather Vyazhuti

    Today, 25 April, Wednesday

    Time Temperature Precipitation Wind Pressure Humidity
    00:00 +8°C° 0 mm 2 mps 741 mmHg 82%
    01:00 +9°C° 0 mm 3 mps 740 mmHg 82%
    02:00 +9°C° 0 mm 3 mps 740 mmHg 82%
    03:00 +9°C° 0.1 mm 3 mps 740 mmHg 84%
    04:00 +9°C° 0.1 mm 3 mps 740 mmHg 87%
    05:00 +8°C° 0.1 mm 4 mps 740 mmHg 89%
    06:00 +8°C° 0 mm 4 mps 740 mmHg 83%
    07:00 +9°C° 0 mm 5 mps 740 mmHg 77%
    08:00 +9°C° 0 mm 6 mps 740 mmHg 70%
    09:00 +10°C° 0 mm 6 mps 740 mmHg 65%
    10:00 +11°C° 0 mm 6 mps 740 mmHg 60%
    11:00 +13°C° 0 mm 6 mps 740 mmHg 55%
    12:00 +13°C° 0.1 mm 6 mps 739 mmHg 57%
    13:00 +13°C° 0.1 mm 6 mps 739 mmHg 58%
    14:00 +13°C° 0.1 mm 6 mps 739 mmHg 59%
    15:00 +12°C° 1.1 mm 5 mps 738 mmHg 69%
    16:00 +11°C° 1.1 mm 4 mps 737 mmHg 79%
    17:00 +10°C° 1.1 mm 3 mps 736 mmHg 89%
    18:00 +10°C° 2 mm 3 mps 736 mmHg 90%
    19:00 +11°C° 2 mm 3 mps 735 mmHg 91%
    20:00 +11°C° 2 mm 4 mps 734 mmHg 92%
    21:00 +11°C° 0 mm 4 mps 734 mmHg 93%
    22:00 +10°C° 0 mm 4 mps 734 mmHg 93%
    23:00 +10°C° 0 mm 4 mps 734 mmHg 94%

    Tomorrow, 26 April, Thursday

    Time Temperature Precipitation Wind Pressure Humidity
    00:00 +8°C° 0 mm 5 mps 734 mmHg 93%
    01:00 +8°C° 0 mm 6 mps 735 mmHg 92%
    02:00 +8°C° 0 mm 6 mps 735 mmHg 91%
    03:00 +7°C° 0 mm 6 mps 735 mmHg 89%
    04:00 +5°C° 0 mm 6 mps 736 mmHg 88%
    05:00 +4°C° 0 mm 6 mps 736 mmHg 86%
    06:00 +5°C° 0 mm 6 mps 737 mmHg 84%
    07:00 +5°C° 0 mm 6 mps 738 mmHg 82%
    08:00 +5°C° 0 mm 6 mps 739 mmHg 79%
    09:00 +8°C° 0 mm 7 mps 739 mmHg 73%
    10:00 +9°C° 0 mm 7 mps 739 mmHg 68%
    11:00 +10°C° 0 mm 7 mps 740 mmHg 62%
    12:00 +11°C° 0.1 mm 7 mps 740 mmHg 59%
    13:00 +11°C° 0.1 mm 7 mps 740 mmHg 57%
    14:00 +13°C° 0.1 mm 6 mps 740 mmHg 55%
    15:00 +11°C° 0.2 mm 6 mps 740 mmHg 57%
    16:00 +12°C° 0.2 mm 5 mps 741 mmHg 59%
    17:00 +12°C° 0.2 mm 5 mps 741 mmHg 61%
    18:00 +11°C° 0.1 mm 4 mps 741 mmHg 67%
    19:00 +9°C° 0.1 mm 3 mps 741 mmHg 74%
    20:00 +8°C° 0.1 mm 2 mps 742 mmHg 80%
    21:00 +7°C° 0 mm 2 mps 742 mmHg 83%
    22:00 +7°C° 0 mm 2 mps 742 mmHg 86%
    23:00 +6°C° 0 mm 2 mps 742 mmHg 89%

    Day after tomorrow, 27 April, Friday

    Time Temperature Precipitation Wind Pressure Humidity
    00:00 +6°C° 0 mm 2 mps 742 mmHg 90%
    01:00 +5°C° 0 mm 2 mps 742 mmHg 91%
    02:00 +5°C° 0 mm 2 mps 743 mmHg 92%
    03:00 +5°C° 0 mm 2 mps 743 mmHg 92%
    04:00 +6°C° 0 mm 1 mps 743 mmHg 92%
    05:00 +6°C° 0 mm 1 mps 743 mmHg 92%
    06:00 +6°C° 0.1 mm 2 mps 743 mmHg 86%
    07:00 +8°C° 0.1 mm 2 mps 744 mmHg 80%
    08:00 +9°C° 0.1 mm 2 mps 744 mmHg 74%
    09:00 +10°C° 0.3 mm 2 mps 744 mmHg 69%
    10:00 +11°C° 0.3 mm 3 mps 744 mmHg 64%
    11:00 +12°C° 0.3 mm 3 mps 744 mmHg 59%
    12:00 +12°C° 0.3 mm 4 mps 744 mmHg 57%
    13:00 +13°C° 0.3 mm 4 mps 744 mmHg 55%
    14:00 +13°C° 0.3 mm 5 mps 744 mmHg 54%
    15:00 +13°C° 0.2 mm 5 mps 745 mmHg 54%
    16:00 +13°C° 0.2 mm 5 mps 745 mmHg 55%
    17:00 +12°C° 0.2 mm 5 mps 745 mmHg 55%
    18:00 +11°C° 0 mm 4 mps 745 mmHg 61%
    19:00 +9°C° 0 mm 3 mps 746 mmHg 67%
    20:00 +8°C° 0 mm 2 mps 746 mmHg 74%
    21:00 +7°C° 0 mm 2 mps 747 mmHg 76%
    22:00 +6°C° 0 mm 2 mps 747 mmHg 79%
    23:00 +5°C° 0 mm 2 mps 747 mmHg 82%

    28 April, Saturday

    Time Temperature Precipitation Wind Pressure Humidity
    00:00 +5°C° 0 mm 2 mps 748 mmHg 83%
    01:00 +5°C° 0 mm 2 mps 748 mmHg 84%
    02:00 +5°C° 0 mm 1 mps 748 mmHg 85%
    03:00 +5°C° 0 mm 1 mps 748 mmHg 86%
    04:00 +5°C° 0 mm 1 mps 748 mmHg 86%
    05:00 +5°C° 0 mm 1 mps 749 mmHg 86%
    06:00 +5°C° 0 mm 2 mps 749 mmHg 79%
    07:00 +7°C° 0 mm 2 mps 749 mmHg 73%
    08:00 +9°C° 0 mm 2 mps 749 mmHg 66%
    09:00 +11°C° 0 mm 3 mps 749 mmHg 60%
    10:00 +13°C° 0 mm 3 mps 749 mmHg 55%
    11:00 +14°C° 0 mm 4 mps 749 mmHg 49%
    12:00 +15°C° 0 mm 4 mps 749 mmHg 48%
    13:00 +17°C° 0 mm 4 mps 748 mmHg 47%
    14:00 +17°C° 0 mm 4 mps 748 mmHg 46%
    15:00 +17°C° 0 mm 3 mps 748 mmHg 49%
    16:00 +17°C° 0 mm 3 mps 747 mmHg 52%
    17:00 +17°C° 0 mm 3 mps 747 mmHg 56%
    18:00 +16°C° 0 mm 3 mps 747 mmHg 60%
    19:00 +14°C° 0 mm 3 mps 747 mmHg 63%
    20:00 +13°C° 0 mm 3 mps 747 mmHg 67%
    21:00 +12°C° 0 mm 4 mps 746 mmHg 68%
    22:00 +12°C° 0 mm 4 mps 746 mmHg 69%
    23:00 +12°C° 0 mm 4 mps 746 mmHg 70%

    29 April, Sunday

    Time Temperature Precipitation Wind Pressure Humidity
    00:00 +11°C° 0 mm 4 mps 746 mmHg 73%
    01:00 +11°C° 0 mm 4 mps 746 mmHg 75%
    02:00 +11°C° 0 mm 4 mps 746 mmHg 78%
    03:00 +10°C° 0 mm 3 mps 746 mmHg 81%
    04:00 +10°C° 0 mm 3 mps 746 mmHg 85%
    05:00 +10°C° 0 mm 3 mps 746 mmHg 88%
    06:00 +11°C° 0 mm 3 mps 746 mmHg 84%
    07:00 +14°C° 0 mm 2 mps 746 mmHg 79%
    08:00 +16°C° 0 mm 2 mps 747 mmHg 75%
    09:00 +18°C° 0 mm 2 mps 747 mmHg 67%
    10:00 +19°C° 0 mm 3 mps 747 mmHg 60%
    11:00 +21°C° 0 mm 3 mps 747 mmHg 53%
    12:00 +22°C° 0 mm 3 mps 746 mmHg 51%
    13:00 +24°C° 0 mm 3 mps 746 mmHg 49%
    14:00 +25°C° 0 mm 3 mps 746 mmHg 46%
    15:00 +24°C° 0 mm 3 mps 746 mmHg 49%
    16:00 +24°C° 0 mm 2 mps 746 mmHg 51%
    17:00 +24°C° 0 mm 2 mps 745 mmHg 54%
    18:00 +22°C° 0.1 mm 1 mps 745 mmHg 60%
    19:00 +20°C° 0.1 mm 1 mps 745 mmHg 66%
    20:00 +18°C° 0.1 mm 1 mps 745 mmHg 72%
    21:00 +18°C° 0.1 mm 1 mps 745 mmHg 75%
    22:00 +16°C° 0.1 mm 2 mps 745 mmHg 78%
    23:00 +16°C° 0.1 mm 2 mps 745 mmHg 81%

    30 April, Monday

    Time Temperature Precipitation Wind Pressure Humidity
    00:00 +14°C° 0.4 mm 3 mps 745 mmHg 84%
    01:00 +14°C° 0.4 mm 3 mps 744 mmHg 88%
    02:00 +14°C° 0.4 mm 3 mps 744 mmHg 91%
    03:00 +14°C° 0.5 mm 3 mps 744 mmHg 90%
    04:00 +13°C° 0.5 mm 3 mps 744 mmHg 89%
    05:00 +13°C° 0.5 mm 4 mps 744 mmHg 88%
    06:00 +14°C° 0.1 mm 4 mps 743 mmHg 83%
    07:00 +15°C° 0.1 mm 4 mps 743 mmHg 78%
    08:00 +16°C° 0.1 mm 5 mps 743 mmHg 74%
    09:00 +17°C° 0 mm 5 mps 743 mmHg 69%
    10:00 +19°C° 0 mm 5 mps 743 mmHg 64%
    11:00 +21°C° 0 mm 5 mps 742 mmHg 59%
    12:00 +22°C° 0 mm 5 mps 742 mmHg 57%
    13:00 +23°C° 0 mm 5 mps 742 mmHg 55%
    14:00 +23°C° 0 mm 5 mps 741 mmHg 54%
    15:00 +23°C° 0 mm 5 mps 741 mmHg 55%
    16:00 +23°C° 0 mm 5 mps 741 mmHg 56%
    17:00 +23°C° 0 mm 5 mps 740 mmHg 57%
    18:00 +22°C° 0 mm 5 mps 740 mmHg 61%
    19:00 +20°C° 0 mm 4 mps 740 mmHg 66%
    20:00 +19°C° 0 mm 4 mps 740 mmHg 70%
    21:00 +18°C° 0.3 mm 4 mps 740 mmHg 71%
    22:00 +18°C° 0.3 mm 4 mps 740 mmHg 72%
    23:00 +17°C° 0.3 mm 4 mps 740 mmHg 73%
    Show more